Time,TemperatureF,DewpointF,PressureIn,WindDirection,WindDirectionDegrees,WindSpeedMPH,WindSpeedGustMPH,Humidity,HourlyPrecipIn,Conditions,Clouds,dailyrainin,SoftwareType,DateUTC
2013-07-02 00:01:00,66.6,62.9,30.02,SSE,164,0.0,0.0,88,0.00,,---,0.00,VWS V13.00,2013-07-02 07:01:00,
2013-07-02 00:06:00,66.4,62.7,30.03,SSE,164,0.0,0.0,88,0.00,,---,0.00,VWS V13.00,2013-07-02 07:06:00,
2013-07-02 00:11:00,66.4,62.7,30.03,SSE,164,0.0,0.0,88,0.00,,---,0.00,VWS V13.00,2013-07-02 07:11:00,
2013-07-02 00:16:00,66.3,62.6,30.03,SSE,164,0.0,0.0,88,0.00,,---,0.00,VWS V13.00,2013-07-02 07:16:00,
2013-07-02 00:21:00,66.1,62.1,30.03,SSE,164,0.0,0.0,87,0.00,,---,0.00,VWS V13.00,2013-07-02 07:21:00,
2013-07-02 00:26:00,66.0,62.3,30.03,SSE,164,0.0,0.0,88,0.00,,---,0.00,VWS V13.00,2013-07-02 07:26:00,
2013-07-02 00:31:00,65.8,62.2,30.03,SSE,164,0.0,0.0,88,0.00,,---,0.00,VWS V13.00,2013-07-02 07:31:00,
2013-07-02 00:36:00,65.6,62.0,30.03,SSE,164,0.0,0.0,88,0.00,,---,0.00,VWS V13.00,2013-07-02 07:36:00,
2013-07-02 00:41:00,65.5,61.9,30.03,SSE,164,0.0,0.0,88,0.00,,---,0.00,VWS V13.00,2013-07-02 07:41:00,
2013-07-02 00:46:00,65.3,61.3,30.03,SSE,164,0.0,0.0,87,0.00,,---,0.00,VWS V13.00,2013-07-02 07:46:00,
2013-07-02 00:51:00,65.2,61.2,30.04,SSE,164,0.0,0.0,87,0.00,,---,0.00,VWS V13.00,2013-07-02 07:51:00,
2013-07-02 00:56:00,65.2,61.2,30.04,SSE,164,0.0,0.0,87,0.00,,---,0.00,VWS V13.00,2013-07-02 07:56:00,
2013-07-02 01:01:00,65.0,61.4,30.04,SSE,164,0.0,0.0,88,0.00,,---,0.00,VWS V13.00,2013-07-02 08:01:00,
2013-07-02 01:06:00,65.0,61.4,30.05,SSE,157,0.0,0.0,88,0.00,,---,0.00,VWS V13.00,2013-07-02 08:06:00,
2013-07-02 01:11:00,64.8,61.2,30.05,SSE,164,0.0,0.0,88,0.00,,---,0.00,VWS V13.00,2013-07-02 08:11:00,
2013-07-02 01:16:00,64.7,61.1,30.05,SSE,164,0.0,0.0,88,0.00,,---,0.00,VWS V13.00,2013-07-02 08:16:00,
2013-07-02 01:21:00,64.7,61.1,30.06,SSE,164,0.0,0.0,88,0.00,,---,0.00,VWS V13.00,2013-07-02 08:21:00,
2013-07-02 01:26:00,64.5,60.9,30.06,SSE,164,0.0,0.0,88,0.00,,---,0.00,VWS V13.00,2013-07-02 08:26:00,
2013-07-02 01:31:00,64.3,60.7,30.06,SSE,164,0.0,0.0,88,0.00,,---,0.00,VWS V13.00,2013-07-02 08:31:00,
2013-07-02 01:36:00,64.3,60.7,30.06,SSE,164,0.0,0.0,88,0.00,,---,0.00,VWS V13.00,2013-07-02 08:36:00,
2013-07-02 01:41:00,64.2,60.6,30.06,SSE,164,0.0,0.0,88,0.00,,---,0.00,VWS V13.00,2013-07-02 08:41:00,
2013-07-02 01:46:00,64.2,60.6,30.06,SSE,164,0.0,0.0,88,0.00,,---,0.00,VWS V13.00,2013-07-02 08:46:00,
2013-07-02 01:51:00,64.0,60.4,30.06,SSE,164,0.0,0.0,88,0.00,,---,0.00,VWS V13.00,2013-07-02 08:51:00,
2013-07-02 01:56:00,64.0,60.4,30.06,SSE,164,0.0,0.0,88,0.00,,---,0.00,VWS V13.00,2013-07-02 08:56:00,
2013-07-02 02:01:00,63.9,60.3,30.06,SSE,164,0.0,0.0,88,0.00,,---,0.00,VWS V13.00,2013-07-02 09:01:00,
2013-07-02 02:06:00,63.9,60.3,30.06,SSE,164,0.0,0.0,88,0.00,,---,0.00,VWS V13.00,2013-07-02 09:06:00,
2013-07-02 02:11:00,63.9,60.3,30.06,SSE,164,0.0,0.0,88,0.00,,---,0.00,VWS V13.00,2013-07-02 09:11:00,
2013-07-02 02:16:00,63.7,60.1,30.06,SSE,164,0.0,0.0,88,0.00,,---,0.00,VWS V13.00,2013-07-02 09:16:00,
2013-07-02 02:21:00,63.7,60.1,30.06,SSE,164,0.0,0.0,88,0.00,,---,0.00,VWS V13.00,2013-07-02 09:21:00,
2013-07-02 02:26:00,63.5,59.9,30.06,SSE,164,0.0,0.0,88,0.00,,---,0.00,VWS V13.00,2013-07-02 09:26:00,
2013-07-02 02:31:00,63.4,59.8,30.06,SSE,164,0.0,0.0,88,0.00,,---,0.00,VWS V13.00,2013-07-02 09:31:00,
2013-07-02 02:36:00,63.4,59.8,30.06,SSE,164,0.0,0.0,88,0.00,,---,0.00,VWS V13.00,2013-07-02 09:36:00,
2013-07-02 02:41:00,63.2,59.6,30.06,SSE,164,0.0,0.0,88,0.00,,---,0.00,VWS V13.00,2013-07-02 09:41:00,
2013-07-02 02:46:00,63.1,59.5,30.06,SSE,164,0.0,0.0,88,0.00,,---,0.00,VWS V13.00,2013-07-02 09:46:00,
2013-07-02 02:51:00,63.1,59.5,30.06,SSE,164,0.0,0.0,88,0.00,,---,0.00,VWS V13.00,2013-07-02 09:51:00,
2013-07-02 02:56:00,62.9,59.3,30.06,SSE,164,0.0,0.0,88,0.00,,---,0.00,VWS V13.00,2013-07-02 09:56:00,
2013-07-02 03:01:00,62.7,59.1,30.06,SSE,164,0.0,0.0,88,0.00,,---,0.00,VWS V13.00,2013-07-02 10:01:00,
2013-07-02 03:06:00,62.6,59.0,30.06,SSE,164,0.0,0.0,88,0.00,,---,0.00,VWS V13.00,2013-07-02 10:06:00,
2013-07-02 03:11:00,62.6,59.3,30.06,SSE,164,0.0,0.0,89,0.00,,---,0.00,VWS V13.00,2013-07-02 10:11:00,
2013-07-02 03:16:00,62.4,59.1,30.06,SSE,164,0.0,0.0,89,0.00,,---,0.00,VWS V13.00,2013-07-02 10:16:00,
2013-07-02 03:21:00,62.3,59.0,30.05,SSE,164,0.0,0.0,89,0.00,,---,0.00,VWS V13.00,2013-07-02 10:21:00,
2013-07-02 03:26:00,62.1,58.8,30.05,SSE,164,0.0,0.0,89,0.00,,---,0.00,VWS V13.00,2013-07-02 10:26:00,
2013-07-02 03:31:00,62.0,58.7,30.05,SSE,164,0.0,0.0,89,0.00,,---,0.00,VWS V13.00,2013-07-02 10:31:00,
2013-07-02 03:36:00,62.0,58.7,30.06,SSE,164,0.0,0.0,89,0.00,,---,0.00,VWS V13.00,2013-07-02 10:36:00,
2013-07-02 03:41:00,61.8,58.5,30.06,SSE,164,0.0,0.0,89,0.00,,---,0.00,VWS V13.00,2013-07-02 10:41:00,
2013-07-02 03:46:00,61.6,58.3,30.06,SSE,164,0.0,0.0,89,0.00,,---,0.00,VWS V13.00,2013-07-02 10:46:00,
2013-07-02 03:51:00,61.5,58.2,30.05,SSE,164,0.0,0.0,89,0.00,,---,0.00,VWS V13.00,2013-07-02 10:51:00,
2013-07-02 03:56:00,61.3,58.0,30.05,SSE,164,0.0,0.0,89,0.00,,---,0.00,VWS V13.00,2013-07-02 10:56:00,
2013-07-02 04:01:00,61.2,57.9,30.05,SSE,164,0.0,0.0,89,0.00,,---,0.00,VWS V13.00,2013-07-02 11:01:00,
2013-07-02 04:06:00,61.0,57.7,30.05,SSE,164,0.0,0.0,89,0.00,,---,0.00,VWS V13.00,2013-07-02 11:06:00,
2013-07-02 04:11:00,60.9,57.6,30.05,SSE,164,0.0,0.0,89,0.00,,---,0.00,VWS V13.00,2013-07-02 11:11:00,
2013-07-02 04:16:00,60.7,57.4,30.05,SSE,164,0.0,0.0,89,0.00,,---,0.00,VWS V13.00,2013-07-02 11:16:00,
2013-07-02 04:21:00,60.5,57.2,30.04,SSE,164,0.0,0.0,89,0.00,,---,0.00,VWS V13.00,2013-07-02 11:21:00,
2013-07-02 04:26:00,60.4,57.2,30.04,SSE,164,0.0,0.0,89,0.00,,---,0.00,VWS V13.00,2013-07-02 11:26:00,
2013-07-02 04:31:00,60.4,57.5,30.04,SSE,164,0.0,0.0,90,0.00,,---,0.00,VWS V13.00,2013-07-02 11:31:00,
2013-07-02 04:36:00,60.2,57.3,30.04,SSE,164,0.0,0.0,90,0.00,,---,0.00,VWS V13.00,2013-07-02 11:36:00,
2013-07-02 04:41:00,60.1,57.2,30.04,SSE,164,0.0,0.0,90,0.00,,---,0.00,VWS V13.00,2013-07-02 11:41:00,
2013-07-02 04:46:00,60.1,57.2,30.04,SSE,164,0.0,0.0,90,0.00,,---,0.00,VWS V13.00,2013-07-02 11:46:00,
2013-07-02 04:51:00,59.9,57.0,30.04,SSE,164,0.0,0.0,90,0.00,,---,0.00,VWS V13.00,2013-07-02 11:51:00,
2013-07-02 04:56:00,59.8,56.9,30.04,SSE,164,0.0,0.0,90,0.00,,---,0.00,VWS V13.00,2013-07-02 11:56:00,
2013-07-02 05:01:00,59.8,56.9,30.04,SSW,203,0.0,0.0,90,0.00,,---,0.00,VWS V13.00,2013-07-02 12:01:00,
2013-07-02 05:06:00,59.6,56.7,30.05,SSW,203,0.0,0.0,90,0.00,,---,0.00,VWS V13.00,2013-07-02 12:06:00,
2013-07-02 05:11:00,59.5,56.6,30.05,SSW,203,0.0,0.0,90,0.00,,---,0.00,VWS V13.00,2013-07-02 12:11:00,
2013-07-02 05:16:00,59.5,56.6,30.05,SSW,196,0.0,0.0,90,0.00,,---,0.00,VWS V13.00,2013-07-02 12:16:00,
2013-07-02 05:21:00,59.3,56.4,30.05,SSW,203,0.0,0.0,90,0.00,,---,0.00,VWS V13.00,2013-07-02 12:21:00,
2013-07-02 05:26:00,59.3,56.4,30.05,SSW,203,0.0,0.0,90,0.00,,---,0.00,VWS V13.00,2013-07-02 12:26:00,
2013-07-02 05:31:00,59.2,56.6,30.05,SSW,203,0.0,0.0,91,0.00,,---,0.00,VWS V13.00,2013-07-02 12:31:00,
2013-07-02 05:36:00,59.2,56.6,30.06,SSW,203,0.0,0.0,91,0.00,,---,0.00,VWS V13.00,2013-07-02 12:36:00,
2013-07-02 05:41:00,59.0,56.4,30.06,SSW,203,0.0,0.0,91,0.00,,---,0.00,VWS V13.00,2013-07-02 12:41:00,
2013-07-02 05:46:00,58.9,56.3,30.06,SSW,203,0.0,0.0,91,0.00,,---,0.00,VWS V13.00,2013-07-02 12:46:00,
2013-07-02 05:51:00,58.9,56.3,30.06,SSW,203,0.0,0.0,91,0.00,,---,0.00,VWS V13.00,2013-07-02 12:51:00,
2013-07-02 05:56:00,58.9,56.6,30.06,SSW,203,0.0,0.0,92,0.00,,---,0.00,VWS V13.00,2013-07-02 12:56:00,
2013-07-02 06:01:00,58.9,56.6,30.06,SSW,203,0.0,0.0,92,0.00,,---,0.00,VWS V13.00,2013-07-02 13:01:00,
2013-07-02 06:06:00,58.9,56.6,30.07,SSW,203,0.0,0.0,92,0.00,,---,0.00,VWS V13.00,2013-07-02 13:06:00,
2013-07-02 06:11:00,58.9,56.6,30.07,SSW,203,0.0,0.0,92,0.00,,---,0.00,VWS V13.00,2013-07-02 13:11:00,
2013-07-02 06:16:00,58.7,56.4,30.07,SSW,203,0.0,0.0,92,0.00,,---,0.00,VWS V13.00,2013-07-02 13:16:00,
2013-07-02 06:21:00,58.7,56.4,30.08,SSW,203,0.0,0.0,92,0.00,,---,0.00,VWS V13.00,2013-07-02 13:21:00,
2013-07-02 06:26:00,58.7,56.4,30.08,SSW,203,0.0,0.0,92,0.00,,---,0.00,VWS V13.00,2013-07-02 13:26:00,
2013-07-02 06:31:00,58.7,56.4,30.08,SSW,203,0.0,0.0,92,0.00,,---,0.00,VWS V13.00,2013-07-02 13:31:00,
2013-07-02 06:36:00,58.7,56.4,30.08,SSW,203,0.0,0.0,92,0.00,,---,0.00,VWS V13.00,2013-07-02 13:36:00,
2013-07-02 06:41:00,58.7,56.4,30.08,SSW,203,0.0,0.0,92,0.00,,---,0.00,VWS V13.00,2013-07-02 13:41:00,
2013-07-02 06:46:00,58.9,56.9,30.08,South,169,0.0,1.0,93,0.00,,---,0.00,VWS V13.00,2013-07-02 13:46:00,
2013-07-02 06:51:00,58.9,56.9,30.08,South,169,0.0,1.0,93,0.00,,---,0.00,VWS V13.00,2013-07-02 13:51:00,
2013-07-02 06:56:00,58.9,56.9,30.08,South,169,0.0,1.0,93,0.00,,---,0.00,VWS V13.00,2013-07-02 13:56:00,
2013-07-02 07:01:00,59.0,57.0,30.08,South,169,0.0,1.0,93,0.00,,---,0.00,VWS V13.00,2013-07-02 14:01:00,
2013-07-02 07:06:00,59.0,57.0,30.09,South,169,0.0,1.0,93,0.00,,---,0.00,VWS V13.00,2013-07-02 14:06:00,
2013-07-02 07:11:00,59.2,57.2,30.09,South,169,0.0,0.0,93,0.00,,---,0.00,VWS V13.00,2013-07-02 14:11:00,
2013-07-02 07:16:00,59.3,57.3,30.09,South,169,0.0,0.0,93,0.00,,---,0.00,VWS V13.00,2013-07-02 14:16:00,
2013-07-02 07:21:00,59.3,57.3,30.08,South,169,0.0,0.0,93,0.00,,---,0.00,VWS V13.00,2013-07-02 14:21:00,
2013-07-02 07:26:00,59.3,57.3,30.08,South,169,0.0,0.0,93,0.00,,---,0.00,VWS V13.00,2013-07-02 14:26:00,
2013-07-02 07:31:00,59.3,57.3,30.08,South,169,0.0,0.0,93,0.00,,---,0.00,VWS V13.00,2013-07-02 14:31:00,
2013-07-02 07:36:00,59.5,57.5,30.09,South,169,0.0,0.0,93,0.00,,---,0.00,VWS V13.00,2013-07-02 14:36:00,
2013-07-02 07:41:00,59.5,57.2,30.09,South,169,0.0,0.0,92,0.00,,---,0.00,VWS V13.00,2013-07-02 14:41:00,
2013-07-02 07:46:00,59.6,57.3,30.09,South,169,0.0,0.0,92,0.00,,---,0.00,VWS V13.00,2013-07-02 14:46:00,
2013-07-02 07:51:00,59.6,57.3,30.09,South,169,0.0,0.0,92,0.00,,---,0.00,VWS V13.00,2013-07-02 14:51:00,
2013-07-02 07:56:00,59.6,57.3,30.09,South,169,0.0,0.0,92,0.00,,---,0.00,VWS V13.00,2013-07-02 14:56:00,
2013-07-02 08:01:00,59.8,57.5,30.09,South,169,0.0,0.0,92,0.00,,---,0.00,VWS V13.00,2013-07-02 15:01:00,
2013-07-02 08:06:00,59.9,57.6,30.09,SSE,167,0.0,0.0,92,0.00,,---,0.00,VWS V13.00,2013-07-02 15:06:00,
2013-07-02 08:11:00,60.1,57.8,30.09,SSE,167,0.0,0.0,92,0.00,,---,0.00,VWS V13.00,2013-07-02 15:11:00,
2013-07-02 08:16:00,60.2,57.9,30.09,SSE,167,0.0,0.0,92,0.00,,---,0.00,VWS V13.00,2013-07-02 15:16:00,
2013-07-02 08:21:00,60.2,57.9,30.10,East,88,0.0,0.0,92,0.00,,---,0.00,VWS V13.00,2013-07-02 15:21:00,
2013-07-02 08:26:00,60.4,58.1,30.10,East,88,0.0,0.0,92,0.00,,---,0.00,VWS V13.00,2013-07-02 15:26:00,
2013-07-02 08:31:00,60.4,58.1,30.10,East,79,0.0,0.0,92,0.00,,---,0.00,VWS V13.00,2013-07-02 15:31:00,
2013-07-02 08:36:00,60.4,58.1,30.10,East,79,0.0,0.0,92,0.00,,---,0.00,VWS V13.00,2013-07-02 15:36:00,
2013-07-02 08:41:00,60.4,57.8,30.10,East,79,0.0,0.0,91,0.00,,---,0.00,VWS V13.00,2013-07-02 15:41:00,
2013-07-02 08:46:00,60.5,57.9,30.10,East,79,0.0,0.0,91,0.00,,---,0.00,VWS V13.00,2013-07-02 15:46:00,
2013-07-02 08:51:00,60.7,58.4,30.10,East,79,0.0,0.0,92,0.00,,---,0.00,VWS V13.00,2013-07-02 15:51:00,
2013-07-02 08:56:00,60.9,58.6,30.10,East,79,0.0,0.0,92,0.00,,---,0.00,VWS V13.00,2013-07-02 15:56:00,
2013-07-02 09:01:00,60.9,58.3,30.10,East,79,0.0,0.0,91,0.00,,---,0.00,VWS V13.00,2013-07-02 16:01:00,
2013-07-02 09:06:00,60.9,58.3,30.10,East,79,0.0,0.0,91,0.00,,---,0.00,VWS V13.00,2013-07-02 16:06:00,
2013-07-02 09:11:00,60.9,58.0,30.10,NNW,344,1.0,1.0,90,0.00,,---,0.00,VWS V13.00,2013-07-02 16:11:00,
2013-07-02 09:16:00,60.9,58.0,30.10,NNW,344,0.0,1.0,90,0.00,,---,0.00,VWS V13.00,2013-07-02 16:16:00,
2013-07-02 09:21:00,61.2,58.2,30.10,NNW,344,0.0,1.0,90,0.00,,---,0.00,VWS V13.00,2013-07-02 16:21:00,
2013-07-02 09:26:00,61.3,58.7,30.10,NNW,344,0.0,1.0,91,0.00,,---,0.00,VWS V13.00,2013-07-02 16:26:00,
2013-07-02 09:31:00,61.5,58.5,30.10,North,0,0.0,1.0,90,0.00,,---,0.00,VWS V13.00,2013-07-02 16:31:00,
2013-07-02 09:36:00,61.6,58.6,30.10,North,0,0.0,1.0,90,0.00,,---,0.00,VWS V13.00,2013-07-02 16:36:00,
2013-07-02 09:41:00,61.6,58.3,30.10,North,0,0.0,0.0,89,0.00,,---,0.00,VWS V13.00,2013-07-02 16:41:00,
2013-07-02 09:46:00,62.0,59.0,30.10,North,0,0.0,0.0,90,0.00,,---,0.00,VWS V13.00,2013-07-02 16:46:00,
2013-07-02 09:51:00,62.3,59.3,30.10,North,0,0.0,0.0,90,0.00,,---,0.00,VWS V13.00,2013-07-02 16:51:00,
2013-07-02 09:56:00,62.4,59.1,30.10,North,0,0.0,0.0,89,0.00,,---,0.00,VWS V13.00,2013-07-02 16:56:00,
2013-07-02 10:01:00,62.4,58.8,30.10,SSW,196,0.0,0.0,88,0.00,,---,0.00,VWS V13.00,2013-07-02 17:01:00,
2013-07-02 10:06:00,62.7,59.1,30.09,SSW,203,0.0,0.0,88,0.00,,---,0.00,VWS V13.00,2013-07-02 17:06:00,
2013-07-02 10:11:00,62.9,59.3,30.09,SSW,203,0.0,0.0,88,0.00,,---,0.00,VWS V13.00,2013-07-02 17:11:00,
2013-07-02 10:16:00,63.4,59.8,30.09,SSW,203,0.0,0.0,88,0.00,,---,0.00,VWS V13.00,2013-07-02 17:16:00,
2013-07-02 10:21:00,63.5,59.6,30.09,NW,326,0.0,1.0,87,0.00,,---,0.00,VWS V13.00,2013-07-02 17:21:00,
2013-07-02 10:26:00,63.7,59.4,30.09,NW,326,0.0,1.0,86,0.00,,---,0.00,VWS V13.00,2013-07-02 17:26:00,
2013-07-02 10:31:00,64.0,59.4,30.09,NNW,329,0.0,3.0,85,0.00,,---,0.00,VWS V13.00,2013-07-02 17:31:00,
2013-07-02 10:36:00,64.7,60.1,30.09,NNW,329,0.0,3.0,85,0.00,,---,0.00,VWS V13.00,2013-07-02 17:36:00,
2013-07-02 10:41:00,65.2,60.2,30.09,NNW,337,0.0,0.0,84,0.00,,---,0.00,VWS V13.00,2013-07-02 17:41:00,
2013-07-02 10:46:00,65.0,59.7,30.09,NE,48,0.0,1.0,83,0.00,,---,0.00,VWS V13.00,2013-07-02 17:46:00,
2013-07-02 10:51:00,65.6,60.0,30.08,NNE,23,0.0,1.0,82,0.00,,---,0.00,VWS V13.00,2013-07-02 17:51:00,
2013-07-02 10:56:00,66.0,60.3,30.08,WSW,247,0.0,3.0,82,0.00,,---,0.00,VWS V13.00,2013-07-02 17:56:00,
2013-07-02 11:01:00,65.6,59.3,30.08,ENE,72,0.0,3.0,80,0.00,,---,0.00,VWS V13.00,2013-07-02 18:01:00,
2013-07-02 11:06:00,65.6,61.0,30.09,WNW,287,0.0,3.0,85,0.00,,---,0.00,VWS V13.00,2013-07-02 18:06:00,
2013-07-02 11:11:00,66.8,60.1,30.09,NE,47,0.0,2.0,79,0.00,,---,0.00,VWS V13.00,2013-07-02 18:11:00,
2013-07-02 11:16:00,68.1,62.8,30.09,NE,55,0.0,2.0,83,0.00,,---,0.00,VWS V13.00,2013-07-02 18:16:00,
2013-07-02 11:21:00,68.8,60.9,30.09,ENE,58,2.0,5.0,76,0.00,,---,0.00,VWS V13.00,2013-07-02 18:21:00,
2013-07-02 11:26:00,67.6,60.5,30.09,ENE,71,0.0,5.0,78,0.00,,---,0.00,VWS V13.00,2013-07-02 18:26:00,
2013-07-02 11:31:00,69.4,62.6,30.09,NNW,344,0.0,5.0,79,0.00,,---,0.00,VWS V13.00,2013-07-02 18:31:00,
2013-07-02 11:36:00,70.3,62.8,30.09,SSW,205,0.0,5.0,77,0.00,,---,0.00,VWS V13.00,2013-07-02 18:36:00,
2013-07-02 11:41:00,70.8,62.5,30.09,NE,37,0.0,1.0,75,0.00,,---,0.00,VWS V13.00,2013-07-02 18:41:00,
2013-07-02 11:46:00,69.9,61.6,30.09,NE,41,0.0,2.0,75,0.00,,---,0.00,VWS V13.00,2013-07-02 18:46:00,
2013-07-02 11:51:00,69.8,60.4,30.09,SSE,158,0.0,2.0,72,0.00,,---,0.00,VWS V13.00,2013-07-02 18:51:00,
2013-07-02 11:56:00,69.8,61.2,30.09,NNE,17,0.0,4.0,74,0.00,,---,0.00,VWS V13.00,2013-07-02 18:56:00,
2013-07-02 12:01:00,70.6,62.3,30.09,North,356,0.0,4.0,75,0.00,,---,0.00,VWS V13.00,2013-07-02 19:01:00,
2013-07-02 12:06:00,69.9,61.6,30.10,NNW,332,0.0,4.0,75,0.00,,---,0.00,VWS V13.00,2013-07-02 19:06:00,
2013-07-02 12:11:00,70.6,61.9,30.10,SE,127,0.0,0.0,74,0.00,,---,0.00,VWS V13.00,2013-07-02 19:11:00,
2013-07-02 12:16:00,70.8,62.1,30.10,NNE,20,0.0,1.0,74,0.00,,---,0.00,VWS V13.00,2013-07-02 19:16:00,
2013-07-02 12:21:00,71.8,61.5,30.09,NNW,340,0.0,1.0,70,0.00,,---,0.00,VWS V13.00,2013-07-02 19:21:00,
2013-07-02 12:26:00,71.3,61.8,30.09,WNW,299,0.0,2.0,72,0.00,,---,0.00,VWS V13.00,2013-07-02 19:26:00,
2013-07-02 12:31:00,71.8,62.3,30.09,West,275,0.0,2.0,72,0.00,,---,0.00,VWS V13.00,2013-07-02 19:31:00,
2013-07-02 12:36:00,73.5,65.5,30.09,West,277,1.0,2.0,76,0.00,,---,0.00,VWS V13.00,2013-07-02 19:36:00,
2013-07-02 12:41:00,73.7,63.7,30.09,North,3,0.0,2.0,71,0.00,,---,0.00,VWS V13.00,2013-07-02 19:41:00,
2013-07-02 12:46:00,73.0,62.7,30.09,SE,130,0.0,2.0,70,0.00,,---,0.00,VWS V13.00,2013-07-02 19:46:00,
2013-07-02 12:51:00,73.9,62.7,30.09,ENE,75,0.0,2.0,68,0.00,,---,0.00,VWS V13.00,2013-07-02 19:51:00,
2013-07-02 12:56:00,73.9,62.3,30.09,NNE,24,0.0,2.0,67,0.00,,---,0.00,VWS V13.00,2013-07-02 19:56:00,
2013-07-02 13:01:00,74.4,62.7,30.09,North,0,0.0,2.0,67,0.00,,---,0.00,VWS V13.00,2013-07-02 20:01:00,
2013-07-02 13:06:00,74.4,62.3,30.09,NNW,339,0.0,2.0,66,0.00,,---,0.00,VWS V13.00,2013-07-02 20:06:00,
2013-07-02 13:11:00,74.0,63.2,30.09,ENE,71,0.0,0.0,69,0.00,,---,0.00,VWS V13.00,2013-07-02 20:11:00,
2013-07-02 13:16:00,73.9,62.3,30.09,NE,40,0.0,5.0,67,0.00,,---,0.00,VWS V13.00,2013-07-02 20:16:00,
2013-07-02 13:21:00,73.7,61.7,30.09,North,0,0.0,5.0,66,0.00,,---,0.00,VWS V13.00,2013-07-02 20:21:00,
2013-07-02 13:26:00,73.9,62.7,30.09,North,353,0.0,5.0,68,0.00,,---,0.00,VWS V13.00,2013-07-02 20:26:00,
2013-07-02 13:31:00,75.8,63.6,30.09,West,275,0.0,5.0,66,0.00,,---,0.00,VWS V13.00,2013-07-02 20:31:00,
2013-07-02 13:36:00,76.5,63.4,30.09,NW,313,0.0,5.0,64,0.00,,---,0.00,VWS V13.00,2013-07-02 20:36:00,
2013-07-02 13:41:00,76.5,64.7,30.09,NW,315,0.0,1.0,67,0.00,,---,0.00,VWS V13.00,2013-07-02 20:41:00,
2013-07-02 13:46:00,76.5,65.6,30.09,East,82,0.0,1.0,69,0.00,,---,0.00,VWS V13.00,2013-07-02 20:46:00,
2013-07-02 13:51:00,77.0,64.3,30.10,East,82,0.0,1.0,65,0.00,,---,0.00,VWS V13.00,2013-07-02 20:51:00,
2013-07-02 13:56:00,76.5,63.9,30.10,WNW,299,0.0,3.0,65,0.00,,---,0.00,VWS V13.00,2013-07-02 20:56:00,
2013-07-02 14:01:00,76.1,63.0,30.10,NE,34,0.0,3.0,64,0.00,,---,0.00,VWS V13.00,2013-07-02 21:01:00,
2013-07-02 14:06:00,77.2,65.0,30.09,ESE,123,0.0,3.0,66,0.00,,---,0.00,VWS V13.00,2013-07-02 21:06:00,
2013-07-02 14:11:00,78.1,64.9,30.09,North,0,0.0,0.0,64,0.00,,---,0.00,VWS V13.00,2013-07-02 21:11:00,
2013-07-02 14:16:00,78.5,64.0,30.09,North,0,0.0,0.0,61,0.00,,---,0.00,VWS V13.00,2013-07-02 21:16:00,
2013-07-02 14:21:00,79.0,65.3,30.10,North,356,0.0,0.0,63,0.00,,---,0.00,VWS V13.00,2013-07-02 21:21:00,
2013-07-02 14:26:00,78.5,63.5,30.10,North,353,0.0,1.0,60,0.00,,---,0.00,VWS V13.00,2013-07-02 21:26:00,
2013-07-02 14:31:00,78.8,64.7,30.10,North,357,0.0,1.0,62,0.00,,---,0.00,VWS V13.00,2013-07-02 21:31:00,
2013-07-02 14:36:00,77.7,63.2,30.10,NW,305,0.0,3.0,61,0.00,,---,0.00,VWS V13.00,2013-07-02 21:36:00,
2013-07-02 14:41:00,78.1,64.0,30.10,ENE,69,2.0,2.0,62,0.00,,---,0.00,VWS V13.00,2013-07-02 21:41:00,
2013-07-02 14:46:00,77.2,63.2,30.10,North,0,0.0,3.0,62,0.00,,---,0.00,VWS V13.00,2013-07-02 21:46:00,
2013-07-02 14:50:00,77.9,62.9,30.09,NNW,340,0.0,3.0,60,0.00,,---,0.00,VWS V13.00,2013-07-02 21:50:00,
2013-07-02 14:55:00,78.1,64.0,30.09,NW,309,0.0,3.0,62,0.00,,---,0.00,VWS V13.00,2013-07-02 21:55:00,
2013-07-02 15:00:00,78.8,64.7,30.09,NW,304,0.0,3.0,62,0.00,,---,0.00,VWS V13.00,2013-07-02 22:00:00,
2013-07-02 15:05:00,79.0,66.2,30.09,SE,140,0.0,3.0,65,0.00,,---,0.00,VWS V13.00,2013-07-02 22:05:00,
2013-07-02 15:10:00,79.6,64.5,30.09,SSE,150,0.0,0.0,60,0.00,,---,0.00,VWS V13.00,2013-07-02 22:10:00,
2013-07-02 15:15:00,79.4,64.3,30.09,NW,323,0.0,3.0,60,0.00,,---,0.00,VWS V13.00,2013-07-02 22:15:00,
2013-07-02 15:20:00,79.8,64.7,30.09,NNW,329,0.0,3.0,60,0.00,,---,0.00,VWS V13.00,2013-07-02 22:20:00,
2013-07-02 15:25:00,79.6,64.5,30.09,NNW,337,0.0,3.0,60,0.00,,---,0.00,VWS V13.00,2013-07-02 22:25:00,
2013-07-02 15:30:00,79.6,64.5,30.09,NW,322,0.0,3.0,60,0.00,,---,0.00,VWS V13.00,2013-07-02 22:30:00,
2013-07-02 15:35:00,79.0,63.9,30.09,NE,41,0.0,3.0,60,0.00,,---,0.00,VWS V13.00,2013-07-02 22:35:00,
2013-07-02 15:40:00,79.9,63.8,30.09,North,3,0.0,0.0,58,0.00,,---,0.00,VWS V13.00,2013-07-02 22:40:00,
2013-07-02 15:45:00,80.3,66.6,30.09,North,7,0.0,0.0,63,0.00,,---,0.00,VWS V13.00,2013-07-02 22:45:00,
2013-07-02 15:50:00,80.3,63.7,30.08,NNE,27,0.0,1.0,57,0.00,,---,0.00,VWS V13.00,2013-07-02 22:50:00,
2013-07-02 15:55:00,80.7,64.6,30.08,NNE,27,0.0,1.0,58,0.00,,---,0.00,VWS V13.00,2013-07-02 22:55:00,
2013-07-02 16:00:00,80.7,64.6,30.08,NNE,17,0.0,1.0,58,0.00,,---,0.00,VWS V13.00,2013-07-02 23:00:00,
2013-07-02 16:05:00,79.9,64.3,30.08,NNW,339,0.0,2.0,59,0.00,,---,0.00,VWS V13.00,2013-07-02 23:05:00,
2013-07-02 16:10:00,80.9,65.2,30.08,NNW,339,0.0,0.0,59,0.00,,---,0.00,VWS V13.00,2013-07-02 23:10:00,
2013-07-02 16:15:00,81.1,63.9,30.08,NNW,337,0.0,0.0,56,0.00,,---,0.00,VWS V13.00,2013-07-02 23:15:00,
2013-07-02 16:20:00,81.1,64.9,30.08,North,357,0.0,0.0,58,0.00,,---,0.00,VWS V13.00,2013-07-02 23:20:00,
2013-07-02 16:25:00,81.6,65.4,30.08,North,0,0.0,1.0,58,0.00,,---,0.00,VWS V13.00,2013-07-02 23:25:00,
2013-07-02 16:29:00,81.2,63.0,30.08,North,3,0.0,1.0,54,0.00,,---,0.00,VWS V13.00,2013-07-02 23:29:00,
2013-07-02 16:34:00,81.6,63.9,30.08,North,357,0.0,1.0,55,0.00,,---,0.00,VWS V13.00,2013-07-02 23:34:00,
2013-07-02 16:39:00,81.8,64.1,30.08,NNW,344,0.0,0.0,55,0.00,,---,0.00,VWS V13.00,2013-07-02 23:39:00,
2013-07-02 16:44:00,82.2,66.0,30.08,NNW,346,0.0,0.0,58,0.00,,---,0.00,VWS V13.00,2013-07-02 23:44:00,
2013-07-02 16:49:00,82.2,64.4,30.08,North,349,0.0,0.0,55,0.00,,---,0.00,VWS V13.00,2013-07-02 23:49:00,
2013-07-02 16:54:00,82.4,65.1,30.07,North,349,0.0,0.0,56,0.00,,---,0.00,VWS V13.00,2013-07-02 23:54:00,
2013-07-02 16:59:00,82.2,63.4,30.07,North,349,0.0,1.0,53,0.00,,---,0.00,VWS V13.00,2013-07-02 23:59:00,
2013-07-02 17:01:00,82.0,63.7,30.07,North,349,0.0,1.0,54,0.00,,---,0.00,VWS V13.00,2013-07-03 00:01:00,
2013-07-02 17:06:00,81.8,64.1,30.07,North,349,0.0,1.0,55,0.00,,---,0.00,VWS V13.00,2013-07-03 00:06:00,
2013-07-02 17:11:00,81.8,63.5,30.07,North,349,0.0,0.0,54,0.00,,---,0.00,VWS V13.00,2013-07-03 00:11:00,
2013-07-02 17:16:00,82.0,64.3,30.07,ENE,58,0.0,1.0,55,0.00,,---,0.00,VWS V13.00,2013-07-03 00:16:00,
2013-07-02 17:21:00,82.2,63.9,30.07,ENE,58,0.0,1.0,54,0.00,,---,0.00,VWS V13.00,2013-07-03 00:21:00,
2013-07-02 17:23:00,82.4,64.1,30.07,ENE,58,0.0,1.0,54,0.00,,---,0.00,VWS V13.00,2013-07-03 00:23:00,
2013-07-02 17:24:00,82.6,64.3,30.07,ENE,58,0.0,1.0,54,0.00,,---,0.00,VWS V13.00,2013-07-03 00:24:00,
2013-07-02 17:28:00,82.6,65.3,30.07,ENE,58,0.0,1.0,56,0.00,,---,0.00,VWS V13.00,2013-07-03 00:28:00,
2013-07-02 17:33:00,82.8,63.9,30.07,NE,47,0.0,1.0,53,0.00,,---,0.00,VWS V13.00,2013-07-03 00:33:00,
2013-07-02 17:38:00,82.8,63.9,30.07,NE,47,0.0,0.0,53,0.00,,---,0.00,VWS V13.00,2013-07-03 00:38:00,
2013-07-02 17:43:00,82.8,64.5,30.07,NE,47,0.0,0.0,54,0.00,,---,0.00,VWS V13.00,2013-07-03 00:43:00,
2013-07-02 17:48:00,82.8,62.8,30.07,NNW,329,0.0,1.0,51,0.00,,---,0.00,VWS V13.00,2013-07-03 00:48:00,
2013-07-02 17:53:00,82.8,63.4,30.06,NNW,329,0.0,1.0,52,0.00,,---,0.00,VWS V13.00,2013-07-03 00:53:00,
2013-07-02 17:58:00,82.4,63.6,30.06,NNW,329,0.0,1.0,53,0.00,,---,0.00,VWS V13.00,2013-07-03 00:58:00,
2013-07-02 18:00:00,82.2,62.8,30.06,NNW,329,0.0,1.0,52,0.00,,---,0.00,VWS V13.00,2013-07-03 01:00:00,
2013-07-02 18:03:00,82.0,62.1,30.06,NNW,337,0.0,1.0,51,0.00,,---,0.00,VWS V13.00,2013-07-03 01:03:00,
2013-07-02 18:08:00,81.6,60.6,30.06,NNW,340,0.0,0.0,49,0.00,,---,0.00,VWS V13.00,2013-07-03 01:08:00,
2013-07-02 18:09:00,81.6,61.2,30.06,NNW,340,0.0,0.0,50,0.00,,---,0.00,VWS V13.00,2013-07-03 01:09:00,
2013-07-02 18:14:00,81.2,61.9,30.06,NNW,340,0.0,0.0,52,0.00,,---,0.00,VWS V13.00,2013-07-03 01:14:00,
2013-07-02 18:19:00,80.9,60.5,30.06,NNW,340,0.0,0.0,50,0.00,,---,0.00,VWS V13.00,2013-07-03 01:19:00,
2013-07-02 18:24:00,80.5,59.6,30.06,NNW,340,0.0,1.0,49,0.00,,---,0.00,VWS V13.00,2013-07-03 01:24:00,
2013-07-02 18:26:00,80.3,59.4,30.06,NNW,340,0.0,1.0,49,0.00,,---,0.00,VWS V13.00,2013-07-03 01:26:00,
2013-07-02 18:31:00,79.9,61.3,30.06,NNW,340,0.0,1.0,53,0.00,,---,0.00,VWS V13.00,2013-07-03 01:31:00,
2013-07-02 18:36:00,79.8,61.2,30.05,NNW,340,0.0,1.0,53,0.00,,---,0.00,VWS V13.00,2013-07-03 01:36:00,
2013-07-02 18:41:00,79.6,59.3,30.05,NNW,340,0.0,0.0,50,0.00,,---,0.00,VWS V13.00,2013-07-03 01:41:00,
2013-07-02 18:46:00,79.4,59.2,30.05,NNW,340,0.0,0.0,50,0.00,,---,0.00,VWS V13.00,2013-07-03 01:46:00,
2013-07-02 18:49:00,79.2,59.0,30.05,NNW,340,0.0,0.0,50,0.00,,---,0.00,VWS V13.00,2013-07-03 01:49:00,
2013-07-02 18:52:00,79.2,60.6,30.05,NNW,340,0.0,0.0,53,0.00,,---,0.00,VWS V13.00,2013-07-03 01:52:00,
2013-07-02 18:58:00,79.2,60.1,30.05,NNW,340,0.0,0.0,52,0.00,,---,0.00,VWS V13.00,2013-07-03 01:58:00,
2013-07-02 19:03:00,79.0,59.9,30.05,NNW,340,0.0,0.0,52,0.00,,---,0.00,VWS V13.00,2013-07-03 02:03:00,
2013-07-02 19:08:00,79.0,59.9,30.05,NNW,340,0.0,0.0,52,0.00,,---,0.00,VWS V13.00,2013-07-03 02:08:00,
2013-07-02 19:13:00,79.0,59.9,30.05,NNW,340,0.0,0.0,52,0.00,,---,0.00,VWS V13.00,2013-07-03 02:13:00,
2013-07-02 19:18:00,78.8,60.2,30.05,NNW,340,0.0,0.0,53,0.00,,---,0.00,VWS V13.00,2013-07-03 02:18:00,
2013-07-02 19:23:00,78.8,60.8,30.05,NNW,340,0.0,0.0,54,0.00,,---,0.00,VWS V13.00,2013-07-03 02:23:00,
2013-07-02 19:28:00,78.6,60.1,30.05,NNW,340,0.0,0.0,53,0.00,,---,0.00,VWS V13.00,2013-07-03 02:28:00,
2013-07-02 19:33:00,78.5,59.4,30.05,NNW,340,0.0,0.0,52,0.00,,---,0.00,VWS V13.00,2013-07-03 02:33:00,
2013-07-02 19:38:00,78.1,59.6,30.05,NNW,340,0.0,0.0,53,0.00,,---,0.00,VWS V13.00,2013-07-03 02:38:00,
2013-07-02 19:43:00,77.7,59.2,30.05,NNW,340,0.0,0.0,53,0.00,,---,0.00,VWS V13.00,2013-07-03 02:43:00,
2013-07-02 19:46:00,77.6,59.1,30.05,NNW,340,0.0,0.0,53,0.00,,---,0.00,VWS V13.00,2013-07-03 02:46:00,
2013-07-02 19:51:00,77.0,58.6,30.05,NNW,340,0.0,0.0,53,0.00,,---,0.00,VWS V13.00,2013-07-03 02:51:00,
2013-07-02 19:56:00,76.7,59.8,30.05,NNW,340,0.0,0.0,56,0.00,,---,0.00,VWS V13.00,2013-07-03 02:56:00,
2013-07-02 20:01:00,76.1,59.3,30.05,NNW,340,0.0,0.0,56,0.00,,---,0.00,VWS V13.00,2013-07-03 03:01:00,
2013-07-02 20:03:00,76.0,59.2,30.05,NNW,340,0.0,0.0,56,0.00,,---,0.00,VWS V13.00,2013-07-03 03:03:00,
2013-07-02 20:09:00,75.4,59.6,30.04,NNW,340,0.0,0.0,58,0.00,,---,0.00,VWS V13.00,2013-07-03 03:09:00,
2013-07-02 20:14:00,74.9,59.6,30.04,NNW,340,0.0,0.0,59,0.00,,---,0.00,VWS V13.00,2013-07-03 03:14:00,
2013-07-02 20:19:00,74.6,59.8,30.04,NNW,340,0.0,0.0,60,0.00,,---,0.00,VWS V13.00,2013-07-03 03:19:00,
2013-07-02 20:21:00,74.2,59.4,30.04,NNW,340,0.0,0.0,60,0.00,,---,0.00,VWS V13.00,2013-07-03 03:21:00,
2013-07-02 20:26:00,73.9,59.6,30.04,NNW,340,0.0,0.0,61,0.00,,---,0.00,VWS V13.00,2013-07-03 03:26:00,
2013-07-02 20:31:00,73.3,58.6,30.04,NNW,340,0.0,0.0,60,0.00,,---,0.00,VWS V13.00,2013-07-03 03:31:00,
2013-07-02 20:35:00,73.2,59.4,30.04,NNW,340,0.0,0.0,62,0.00,,---,0.00,VWS V13.00,2013-07-03 03:35:00,
2013-07-02 20:39:00,72.8,59.9,30.05,NNW,340,0.0,0.0,64,0.00,,---,0.00,VWS V13.00,2013-07-03 03:39:00,
2013-07-02 20:44:00,72.5,59.6,30.05,NNW,340,0.0,0.0,64,0.00,,---,0.00,VWS V13.00,2013-07-03 03:44:00,
2013-07-02 20:49:00,72.1,59.3,30.05,NNW,340,0.0,0.0,64,0.00,,---,0.00,VWS V13.00,2013-07-03 03:49:00,
2013-07-02 20:54:00,71.8,59.4,30.05,NNW,340,0.0,0.0,65,0.00,,---,0.00,VWS V13.00,2013-07-03 03:54:00,
2013-07-02 20:59:00,71.5,59.1,30.05,NNW,340,0.0,0.0,65,0.00,,---,0.00,VWS V13.00,2013-07-03 03:59:00,
2013-07-02 21:00:00,71.3,58.9,30.05,NNW,340,0.0,0.0,65,0.00,,---,0.00,VWS V13.00,2013-07-03 04:00:00,
2013-07-02 21:01:00,71.3,58.5,30.05,NNW,340,0.0,0.0,64,0.00,,---,0.00,VWS V13.00,2013-07-03 04:01:00,
2013-07-02 21:03:00,71.1,58.3,30.05,NNW,340,0.0,0.0,64,0.00,,---,0.00,VWS V13.00,2013-07-03 04:03:00,
2013-07-02 21:04:00,71.1,58.3,30.05,NNW,340,0.0,0.0,64,0.00,,---,0.00,VWS V13.00,2013-07-03 04:04:00,
2013-07-02 21:09:00,70.8,58.5,30.05,NNW,340,0.0,0.0,65,0.00,,---,0.00,VWS V13.00,2013-07-03 04:09:00,
2013-07-02 21:14:00,70.4,58.5,30.05,NNW,340,0.0,0.0,66,0.00,,---,0.00,VWS V13.00,2013-07-03 04:14:00,
2013-07-02 21:19:00,69.9,58.0,30.05,NNW,340,0.0,0.0,66,0.00,,---,0.00,VWS V13.00,2013-07-03 04:19:00,
2013-07-02 21:24:00,69.6,57.3,30.05,NNW,340,0.0,0.0,65,0.00,,---,0.00,VWS V13.00,2013-07-03 04:24:00,
2013-07-02 21:29:00,69.1,57.3,30.05,NNW,340,0.0,0.0,66,0.00,,---,0.00,VWS V13.00,2013-07-03 04:29:00,
2013-07-02 21:31:00,68.9,56.7,30.05,NNW,340,0.0,0.0,65,0.00,,---,0.00,VWS V13.00,2013-07-03 04:31:00,
2013-07-02 21:32:00,68.9,56.7,30.05,NNW,340,0.0,0.0,65,0.00,,---,0.00,VWS V13.00,2013-07-03 04:32:00,
2013-07-02 21:37:00,68.6,57.6,30.05,NNW,340,0.0,0.0,68,0.00,,---,0.00,VWS V13.00,2013-07-03 04:37:00,
2013-07-02 21:42:00,68.3,57.3,30.05,NNW,340,0.0,0.0,68,0.00,,---,0.00,VWS V13.00,2013-07-03 04:42:00,
2013-07-02 21:45:00,68.1,57.2,30.05,NNW,340,0.0,0.0,68,0.00,,---,0.00,VWS V13.00,2013-07-03 04:45:00,
2013-07-02 21:46:00,67.9,57.0,30.05,NNW,340,0.0,0.0,68,0.00,,---,0.00,VWS V13.00,2013-07-03 04:46:00,
2013-07-02 21:51:00,67.6,56.7,30.05,NNW,340,0.0,0.0,68,0.00,,---,0.00,VWS V13.00,2013-07-03 04:51:00,
2013-07-02 21:53:00,67.6,56.7,30.05,NNW,340,0.0,0.0,68,0.00,,---,0.00,VWS V13.00,2013-07-03 04:53:00,
2013-07-02 21:58:00,67.1,57.0,30.05,NNW,340,0.0,0.0,70,0.00,,---,0.00,VWS V13.00,2013-07-03 04:58:00,
2013-07-02 22:03:00,66.9,57.2,30.05,NNW,340,0.0,0.0,71,0.00,,---,0.00,VWS V13.00,2013-07-03 05:03:00,
2013-07-02 22:07:00,66.6,56.9,30.06,NNW,340,0.0,0.0,71,0.00,,---,0.00,VWS V13.00,2013-07-03 05:07:00,
2013-07-02 22:12:00,66.3,57.4,30.06,NNW,340,0.0,0.0,73,0.00,,---,0.00,VWS V13.00,2013-07-03 05:12:00,
2013-07-02 22:17:00,65.8,56.9,30.06,NNW,340,0.0,0.0,73,0.00,,---,0.00,VWS V13.00,2013-07-03 05:17:00,
2013-07-02 22:19:00,65.8,56.9,30.06,NNW,340,0.0,0.0,73,0.00,,---,0.00,VWS V13.00,2013-07-03 05:19:00,
2013-07-02 22:24:00,65.2,56.7,30.06,NNW,340,0.0,0.0,74,0.00,,---,0.00,VWS V13.00,2013-07-03 05:24:00,
2013-07-02 22:29:00,65.0,56.9,30.06,NNW,340,0.0,0.0,75,0.00,,---,0.00,VWS V13.00,2013-07-03 05:29:00,
2013-07-02 22:34:00,64.7,57.0,30.06,NNW,340,0.0,0.0,76,0.00,,---,0.00,VWS V13.00,2013-07-03 05:34:00,
2013-07-02 22:39:00,64.3,56.6,30.06,NNW,340,0.0,0.0,76,0.00,,---,0.00,VWS V13.00,2013-07-03 05:39:00,
2013-07-02 22:45:00,64.2,56.8,30.06,NNW,340,0.0,0.0,77,0.00,,---,0.00,VWS V13.00,2013-07-03 05:45:00,
2013-07-02 22:50:00,64.0,56.7,30.06,NNW,340,0.0,0.0,77,0.00,,---,0.00,VWS V13.00,2013-07-03 05:50:00,
2013-07-02 22:54:00,63.7,56.4,30.06,NNW,340,0.0,0.0,77,0.00,,---,0.00,VWS V13.00,2013-07-03 05:54:00,
2013-07-02 22:57:00,63.5,56.5,30.06,NNW,340,0.0,0.0,78,0.00,,---,0.00,VWS V13.00,2013-07-03 05:57:00,
2013-07-02 22:58:00,63.5,56.5,30.06,NNW,340,0.0,0.0,78,0.00,,---,0.00,VWS V13.00,2013-07-03 05:58:00,
2013-07-02 23:03:00,63.2,56.2,30.06,NNW,340,0.0,0.0,78,0.00,,---,0.00,VWS V13.00,2013-07-03 06:03:00,
2013-07-02 23:08:00,63.1,56.1,30.07,NNW,340,0.0,0.0,78,0.00,,---,0.00,VWS V13.00,2013-07-03 06:08:00,
2013-07-02 23:13:00,62.7,55.8,30.07,NNW,340,0.0,0.0,78,0.00,,---,0.00,VWS V13.00,2013-07-03 06:13:00,
2013-07-02 23:14:00,62.7,55.8,30.07,NNW,340,0.0,0.0,78,0.00,,---,0.00,VWS V13.00,2013-07-03 06:14:00,
2013-07-02 23:17:00,62.6,56.0,30.07,NNW,340,0.0,0.0,79,0.00,,---,0.00,VWS V13.00,2013-07-03 06:17:00,
2013-07-02 23:22:00,62.4,55.8,30.07,NNW,340,0.0,0.0,79,0.00,,---,0.00,VWS V13.00,2013-07-03 06:22:00,
2013-07-02 23:24:00,62.4,55.8,30.07,NNW,340,0.0,0.0,79,0.00,,---,0.00,VWS V13.00,2013-07-03 06:24:00,
2013-07-02 23:26:00,62.3,55.7,30.07,NNW,340,0.0,0.0,79,0.00,,---,0.00,VWS V13.00,2013-07-03 06:26:00,
2013-07-02 23:31:00,62.1,55.5,30.07,NNW,340,0.0,0.0,79,0.00,,---,0.00,VWS V13.00,2013-07-03 06:31:00,
2013-07-02 23:32:00,62.1,55.9,30.07,NNW,340,0.0,0.0,80,0.00,,---,0.00,VWS V13.00,2013-07-03 06:32:00,
2013-07-02 23:37:00,62.0,56.1,30.08,NNW,340,0.0,0.0,81,0.00,,---,0.00,VWS V13.00,2013-07-03 06:37:00,
2013-07-02 23:42:00,61.8,55.6,30.08,NNW,340,0.0,0.0,80,0.00,,---,0.00,VWS V13.00,2013-07-03 06:42:00,
2013-07-02 23:43:00,61.8,55.6,30.08,NNW,340,0.0,0.0,80,0.00,,---,0.00,VWS V13.00,2013-07-03 06:43:00,
2013-07-02 23:48:00,61.5,55.6,30.08,NNW,340,0.0,0.0,81,0.00,,---,0.00,VWS V13.00,2013-07-03 06:48:00,
2013-07-02 23:53:00,61.3,55.4,30.08,NNW,340,0.0,0.0,81,0.00,,---,0.00,VWS V13.00,2013-07-03 06:53:00,
2013-07-02 23:56:00,61.2,55.3,30.08,NNW,340,0.0,0.0,81,0.00,,---,0.00,VWS V13.00,2013-07-03 06:56:00,